START_TIME,STEP,MOV.,H8,t_acc.,H43,t_acc.,M25,t_acc.,H9,t_acc.
1979-07-21 00:00:29.240 ,0,0,0.,12.0,0.,12.0,0.,12.0,0.,12.0
1979-07-21 00:00:41.240 ,0,0,0.,12.0,0.,12.0,0.,12.0,0.,12.0
1979-07-21 00:00:53.240 ,1,0,0.,12.0,0.,12.0,0.,12.0,0.,12.0
1979-07-21 00:01:05.240 ,1,0,0.,12.0,0.,12.0,0.,12.0,0.,12.0
1979-07-21 00:01:17.240 ,1,0,0.,12.0,0.,12.0,0.,12.0,0.,12.0
1979-07-21 00:01:29.240 ,1,0,0.,12.0,0.,12.0,0.,12.0,0.,12.0
1979-07-21 00:01:41.240 ,2,0,0.,12.0,0.,12.0,0.,12.0,0.,12.0
1979-07-21 00:01:53.240 ,2,0,0.,12.0,0.,12.0,0.,12.0,0.,12.0
1979-07-21 00:02:05.240 ,2,0,0.,12.0,0.,12.0,0.,12.0,0.,12.0
1979-07-21 00:02:17.240 ,2,0,0.,12.0,0.,12.0,0.,12.0,0.,12.0
1979-07-21 00:02:29.240 ,3,0,0.,12.0,0.,12.0,0.,12.0,0.,12.0
1979-07-21 00:02:41.240 ,3,0,0.,12.0,0.,12.0,0.,12.0,0.,12.0
1979-07-21 00:02:53.240 ,3,0,0.,12.0,0.,12.0,0.,12.0,0.,12.0
1979-07-21 00:03:05.240 ,3,0,0.,12.0,0.,12.0,0.,12.0,0.,12.0
1979-07-21 00:03:17.240 ,4,0,0.,12.0,0.,12.0,0.,12.0,0.,12.0
1979-07-21 00:03:29.240 ,4,0,0.,12.0,0.,12.0,0.,12.0,0.,12.0
1979-07-21 00:03:41.240 ,4,0,0.,12.0,0.,12.0,0.,12.0,0.,12.0
1979-07-21 00:03:53.240 ,4,0,0.,12.0,0.,12.0,0.,12.0,0.,12.0
1979-07-21 00:04:05.240 ,5,0,0.,12.0,0.,12.0,0.,12.0,0.,12.0
1979-07-21 00:04:17.240 ,5,0,0.,12.0,0.,12.0,0.,12.0,0.,12.0
1979-07-21 00:04:29.240 ,5,0,0.,12.0,0.,12.0,0.,12.0,0.,12.0
1979-07-21 00:04:41.240 ,5,0,0.,12.0,0.,12.0,0.,12.0,0.,12.0
1979-07-21 00:04:53.240 ,6,0,0.,12.0,0.,12.0,0.,12.0,0.,12.0
1979-07-21 00:05:05.240 ,6,0,0.,12.0,0.,12.0,0.,12.0,0.,12.0
1979-07-21 00:05:17.240 ,6,0,0.,12.0,0.,12.0,0.,12.0,0.,12.0
1979-07-21 00:05:29.240 ,6,0,0.,12.0,0.,12.0,0.,12.0,0.,12.0
1979-07-21 00:05:41.240 ,7,0,0.,12.0,0.,12.0,0.,12.0,0.,12.0
1979-07-21 00:05:53.240 ,7,0,0.,12.0,0.,12.0,0.,12.0,0.,12.0
1979-07-21 00:06:05.240 ,7,0,0.,12.0,0.,12.0,0.,12.0,0.,12.0
1979-07-21 00:06:17.240 ,7,0,0.,12.0,0.,12.0,0.,12.0,0.,12.0
1979-07-21 00:06:29.240 ,7,0,0.,12.0,0.,12.0,0.,12.0,0.,12.0
1979-07-21 00:06:41.240 ,7,0,0.,12.0,0.,12.0,0.,12.0,0.,12.0
1979-07-21 00:06:53.240 ,7,0,0.,12.0,0.,12.0,0.,12.0,0.,12.0
1979-07-21 00:07:05.240 ,7,0,0.,12.0,0.,12.0,0.,12.0,0.,12.0
1979-07-21 00:07:17.240 ,6,0,0.,12.0,0.,12.0,0.,12.0,0.,12.0
1979-07-21 00:07:29.240 ,6,0,0.,12.0,0.,12.0,0.,12.0,0.,12.0
1979-07-21 00:07:41.240 ,6,0,0.,12.0,0.,12.0,0.,12.0,0.,12.0
1979-07-21 00:07:53.240 ,6,0,0.,12.0,0.,12.0,0.,12.0,0.,12.0
1979-07-21 00:08:05.240 ,5,0,0.,12.0,0.,12.0,0.,12.0,0.,12.0
1979-07-21 00:08:17.240 ,5,0,0.,12.0,0.,12.0,0.,12.0,0.,12.0
1979-07-21 00:08:29.240 ,5,0,0.,12.0,0.,12.0,0.,12.0,0.,12.0
1979-07-21 00:08:41.240 ,5,0,0.,12.0,0.,12.0,0.,12.0,0.,12.0
1979-07-21 00:08:53.240 ,4,0,0.,12.0,0.,12.0,0.,12.0,0.,12.0
1979-07-21 00:09:05.240 ,4,0,0.,12.0,0.,12.0,0.,12.0,0.,12.0
1979-07-21 00:09:17.240 ,4,0,0.,12.0,0.,12.0,0.,12.0,0.,12.0
1979-07-21 00:09:29.240 ,4,0,0.,12.0,0.,12.0,0.,12.0,0.,12.0
1979-07-21 00:09:41.240 ,3,0,0.,12.0,0.,12.0,0.,12.0,0.,12.0
1979-07-21 00:09:53.240 ,3,0,0.,12.0,0.,12.0,0.,12.0,0.,12.0
1979-07-21 00:10:05.240 ,3,0,0.,12.0,0.,12.0,0.,12.0,0.,12.0
1979-07-21 00:10:17.240 ,3,0,0.,12.0,0.,12.0,0.,12.0,0.,12.0
1979-07-21 00:10:29.240 ,2,0,0.,12.0,0.,12.0,0.,12.0,0.,12.0
1979-07-21 00:10:41.240 ,2,0,1.,12.0,0.,12.0,0.,12.0,0.,12.0
1979-07-21 00:10:53.240 ,2,0,0.,12.0,0.,12.0,0.,12.0,0.,12.0
1979-07-21 00:11:05.240 ,2,0,0.,12.0,0.,12.0,0.,12.0,0.,12.0
1979-07-21 00:11:17.240 ,1,0,0.,12.0,0.,12.0,0.,12.0,0.,12.0
1979-07-21 00:11:29.240 ,1,0,0.,12.0,0.,12.0,0.,12.0,0.,12.0
1979-07-21 00:11:41.240 ,1,0,0.,12.0,0.,12.0,0.,12.0,0.,12.0
1979-07-21 00:11:53.240 ,1,0,0.,12.0,0.,12.0,0.,12.0,0.,12.0
1979-07-21 00:12:05.240 ,0,0,0.,12.0,0.,12.0,0.,12.0,0.,12.0
1979-07-21 00:12:17.240 ,0,0,0.,12.0,0.,12.0,0.,12.0,0.,12.0
1979-07-21 00:12:29.240 ,0,0,0.,12.0,0.,12.0,0.,12.0,0.,12.0
1979-07-21 00:12:41.240 ,0,0,0.,12.0,0.,12.0,0.,12.0,0.,12.0
1979-07-21 00:12:53.240 ,0,0,0.,12.0,0.,12.0,0.,12.0,0.,12.0
1979-07-21 00:13:05.240 ,0,0,0.,12.0,0.,12.0,0.,12.0,0.,12.0
1979-07-21 00:13:17.240 ,0,0,0.,12.0,0.,12.0,0.,12.0,0.,12.0
1979-07-21 00:13:29.240 ,0,0,0.,12.0,0.,12.0,0.,12.0,0.,12.0
1979-07-21 00:13:41.240 ,1,0,0.,12.0,0.,12.0,0.,12.0,0.,12.0
1979-07-21 00:13:53.240 ,1,0,0.,12.0,0.,12.0,0.,12.0,0.,12.0
1979-07-21 00:14:05.240 ,1,0,0.,12.0,0.,12.0,0.,12.0,0.,12.0
1979-07-21 00:14:17.240 ,1,0,0.,12.0,0.,12.0,0.,12.0,0.,12.0
1979-07-21 00:14:29.240 ,2,0,0.,12.0,0.,12.0,0.,12.0,0.,12.0
1979-07-21 00:14:41.240 ,2,0,0.,12.0,0.,12.0,0.,12.0,0.,12.0
1979-07-21 00:14:53.240 ,2,0,0.,12.0,0.,12.0,0.,12.0,0.,12.0
1979-07-21 00:15:05.240 ,2,0,0.,12.0,0.,12.0,0.,12.0,0.,12.0
1979-07-21 00:15:17.240 ,3,0,0.,12.0,0.,12.0,0.,12.0,0.,12.0
1979-07-21 00:15:29.240 ,3,0,0.,12.0,0.,12.0,0.,12.0,0.,12.0
1979-07-21 00:15:41.240 ,3,0,0.,12.0,0.,12.0,0.,12.0,0.,12.0
1979-07-21 00:15:53.240 ,3,0,0.,12.0,0.,12.0,0.,12.0,0.,12.0
1979-07-21 00:16:05.240 ,4,0,0.,12.0,0.,12.0,0.,12.0,0.,12.0
1979-07-21 00:16:17.240 ,4,0,0.,12.0,0.,12.0,0.,12.0,0.,12.0
1979-07-21 00:16:29.240 ,4,0,0.,12.0,0.,12.0,0.,12.0,0.,12.0
1979-07-21 00:16:41.240 ,4,0,0.,12.0,0.,12.0,0.,12.0,0.,12.0
1979-07-21 00:16:53.240 ,5,0,0.,12.0,0.,12.0,0.,12.0,0.,12.0
1979-07-21 00:17:05.240 ,5,0,0.,12.0,0.,12.0,0.,12.0,0.,12.0
1979-07-21 00:17:17.240 ,5,0,0.,12.0,0.,12.0,0.,12.0,0.,12.0
1979-07-21 00:17:29.240 ,5,0,0.,12.0,0.,12.0,0.,12.0,0.,12.0
1979-07-21 00:17:41.240 ,6,0,0.,12.0,0.,12.0,0.,12.0,0.,12.0
1979-07-21 00:17:53.240 ,6,0,0.,12.0,0.,12.0,0.,12.0,0.,12.0
1979-07-21 00:18:05.240 ,6,0,0.,12.0,0.,12.0,0.,12.0,0.,12.0
1979-07-21 00:18:17.240 ,6,0,0.,12.0,0.,12.0,0.,12.0,0.,12.0
1979-07-21 00:18:29.240 ,7,0,0.,12.0,0.,12.0,0.,12.0,0.,12.0
1979-07-21 00:18:41.240 ,7,0,0.,12.0,0.,12.0,0.,12.0,0.,12.0
1979-07-21 00:18:53.240 ,7,0,0.,12.0,0.,12.0,0.,12.0,0.,12.0
1979-07-21 00:19:05.240 ,7,0,0.,12.0,0.,12.0,0.,12.0,0.,12.0
1979-07-21 00:19:17.240 ,3,1,0.,12.0,0.,12.0,0.,12.0,0.,12.0
1979-07-21 00:19:29.240 ,3,1,0.,12.0,0.,12.0,0.,12.0,0.,12.0
1979-07-21 00:19:41.240 ,0,1,0.,12.0,0.,12.0,0.,12.0,0.,12.0
1979-07-21 00:19:53.240 ,0,1,0.,12.0,0.,12.0,0.,12.0,0.,12.0
1979-07-21 00:20:05.240 ,4,1,0.,12.0,0.,12.0,0.,12.0,0.,12.0
1979-07-21 00:20:17.240 ,4,1,0.,12.0,0.,12.0,0.,12.0,0.,12.0
1979-07-21 00:20:29.240 ,7,1,0.,12.0,0.,12.0,0.,12.0,0.,12.0
1979-07-21 00:20:41.240 ,7,1,0.,12.0,0.,12.0,0.,12.0,0.,12.0
1979-07-21 00:20:53.240 ,3,1,0.,12.0,0.,12.0,0.,12.0,0.,12.0
1979-07-21 00:21:05.240 ,3,1,0.,12.0,0.,12.0,0.,12.0,0.,12.0
1979-07-21 00:21:17.240 ,0,1,0.,12.0,0.,12.0,0.,12.0,0.,12.0
1979-07-21 00:21:29.240 ,0,1,1.,12.0,0.,12.0,0.,12.0,0.,12.0
1979-07-21 00:21:41.240 ,4,1,0.,12.0,0.,12.0,0.,12.0,0.,12.0
1979-07-21 00:21:53.240 ,4,1,0.,12.0,0.,12.0,0.,12.0,0.,12.0
1979-07-21 00:22:05.240 ,7,1,0.,12.0,0.,12.0,0.,12.0,0.,12.0
1979-07-21 00:22:17.240 ,7,1,0.,12.0,0.,12.0,0.,12.0,0.,12.0
1979-07-21 00:22:29.240 ,3,1,0.,12.0,0.,12.0,0.,12.0,0.,12.0
1979-07-21 00:22:41.240 ,3,1,0.,12.0,0.,12.0,0.,12.0,0.,12.0
1979-07-21 00:22:53.240 ,0,1,0.,12.0,0.,12.0,0.,12.0,0.,12.0
1979-07-21 00:23:05.240 ,0,1,0.,12.0,0.,12.0,0.,12.0,0.,12.0
1979-07-21 00:23:17.240 ,4,1,0.,12.0,0.,12.0,0.,12.0,0.,12.0
1979-07-21 00:23:29.240 ,4,1,0.,12.0,0.,12.0,0.,12.0,0.,12.0
1979-07-21 00:23:41.240 ,7,1,0.,12.0,0.,12.0,0.,12.0,0.,12.0
1979-07-21 00:23:53.240 ,7,1,0.,12.0,0.,12.0,0.,12.0,0.,12.0
1979-07-21 00:24:05.240 ,3,1,0.,12.0,0.,12.0,0.,12.0,0.,12.0
1979-07-21 00:24:17.240 ,3,1,0.,12.0,0.,12.0,0.,12.0,0.,12.0
1979-07-21 00:24:29.240 ,0,1,0.,12.0,0.,12.0,0.,12.0,0.,12.0
1979-07-21 00:24:41.240 ,0,1,0.,12.0,0.,12.0,0.,12.0,0.,12.0
1979-07-21 00:24:53.240 ,4,1,0.,12.0,0.,12.0,0.,12.0,0.,12.0
1979-07-21 00:25:05.240 ,4,1,0.,12.0,0.,12.0,0.,12.0,0.,12.0
1979-07-21 00:25:17.240 ,7,1,0.,12.0,0.,12.0,0.,12.0,0.,12.0
1979-07-21 00:25:29.240 ,7,1,0.,12.0,0.,12.0,0.,12.0,0.,12.0
1979-07-21 00:25:41.240 ,3,1,0.,12.0,0.,12.0,0.,12.0,0.,12.0
1979-07-21 00:25:53.240 ,3,1,0.,12.0,0.,12.0,0.,12.0,0.,12.0
1979-07-21 00:26:05.240 ,0,1,0.,12.0,0.,12.0,0.,12.0,0.,12.0
1979-07-21 00:26:17.240 ,0,1,0.,12.0,0.,12.0,0.,12.0,0.,12.0
1979-07-21 00:26:29.240 ,4,1,0.,12.0,0.,12.0,0.,12.0,0.,12.0
1979-07-21 00:26:41.240 ,4,1,0.,12.0,0.,12.0,0.,12.0,0.,12.0
1979-07-21 00:26:53.240 ,7,1,0.,12.0,0.,12.0,0.,12.0,0.,12.0
1979-07-21 00:27:05.240 ,7,1,0.,12.0,0.,12.0,0.,12.0,0.,12.0
1979-07-21 00:27:17.240 ,3,1,0.,12.0,0.,12.0,0.,12.0,0.,12.0
1979-07-21 00:27:29.240 ,3,1,0.,12.0,0.,12.0,0.,12.0,0.,12.0
1979-07-21 00:27:41.240 ,0,1,0.,12.0,0.,12.0,0.,12.0,0.,12.0
1979-07-21 00:27:53.240 ,0,1,0.,12.0,0.,12.0,0.,12.0,0.,12.0
1979-07-21 00:28:05.240 ,4,1,0.,12.0,0.,12.0,0.,12.0,0.,12.0
1979-07-21 00:28:17.240 ,4,1,0.,12.0,0.,12.0,0.,12.0,0.,12.0
1979-07-21 00:28:29.240 ,7,1,0.,12.0,0.,12.0,0.,12.0,0.,12.0
1979-07-21 00:28:41.240 ,7,1,0.,12.0,0.,12.0,0.,12.0,0.,12.0
1979-07-21 00:28:53.240 ,3,1,0.,12.0,0.,12.0,0.,12.0,0.,12.0
1979-07-21 00:29:05.240 ,3,1,0.,12.0,0.,12.0,0.,12.0,0.,12.0
1979-07-21 00:29:17.240 ,0,1,0.,12.0,0.,12.0,0.,12.0,0.,12.0
1979-07-21 00:29:29.240 ,0,1,0.,12.0,0.,12.0,0.,12.0,0.,12.0
1979-07-21 00:29:41.240 ,0,0,0.,12.0,0.,12.0,0.,12.0,0.,12.0
1979-07-21 00:29:53.240 ,0,0,0.,12.0,0.,12.0,0.,12.0,0.,12.0
1979-07-21 00:30:05.240 ,0,0,0.,12.0,0.,12.0,0.,12.0,0.,12.0
1979-07-21 00:30:17.240 ,0,0,0.,12.0,0.,12.0,0.,12.0,0.,12.0
1979-07-21 00:30:29.240 ,5,0,0.,12.0,0.,12.0,0.,12.0,0.,12.0
1979-07-21 00:30:41.240 ,5,0,0.,12.0,0.,12.0,0.,12.0,0.,12.0
1979-07-21 00:30:53.240 ,5,0,0.,12.0,0.,12.0,0.,12.0,0.,12.0
1979-07-21 00:31:05.240 ,5,0,0.,12.0,0.,12.0,0.,12.0,0.,12.0
1979-07-21 00:31:17.240 ,4,0,0.,12.0,0.,12.0,0.,12.0,0.,12.0
1979-07-21 00:31:29.240 ,4,0,0.,12.0,0.,12.0,0.,12.0,0.,12.0
1979-07-21 00:31:41.240 ,4,0,0.,12.0,0.,12.0,0.,12.0,0.,12.0
1979-07-21 00:31:53.240 ,4,0,0.,12.0,0.,12.0,0.,12.0,0.,12.0
1979-07-21 00:32:05.240 ,3,0,0.,12.0,0.,12.0,0.,12.0,0.,12.0
1979-07-21 00:32:17.240 ,3,0,0.,12.0,0.,12.0,0.,12.0,0.,12.0
1979-07-21 00:32:29.240 ,3,0,0.,12.0,0.,12.0,0.,12.0,0.,12.0
1979-07-21 00:32:41.240 ,3,0,0.,12.0,0.,12.0,0.,12.0,0.,12.0
1979-07-21 00:32:53.240 ,2,0,0.,12.0,0.,12.0,0.,12.0,0.,12.0
1979-07-21 00:33:05.240 ,2,0,0.,12.0,0.,12.0,0.,12.0,0.,12.0
1979-07-21 00:33:17.240 ,2,0,0.,12.0,0.,12.0,0.,12.0,0.,12.0
1979-07-21 00:33:29.240 ,2,0,0.,12.0,0.,12.0,0.,12.0,0.,12.0
1979-07-21 00:33:41.240 ,1,0,0.,12.0,0.,12.0,0.,12.0,0.,12.0
1979-07-21 00:33:53.240 ,1,0,0.,12.0,0.,12.0,0.,12.0,0.,12.0
1979-07-21 00:34:05.240 ,1,0,0.,12.0,0.,12.0,0.,12.0,0.,12.0
1979-07-21 00:34:17.240 ,1,0,0.,12.0,0.,12.0,0.,12.0,0.,12.0
1979-07-21 00:34:29.240 ,0,0,0.,12.0,0.,12.0,0.,12.0,0.,12.0
1979-07-21 00:34:41.240 ,0,0,0.,12.0,0.,12.0,0.,12.0,0.,12.0
1979-07-21 00:34:53.240 ,0,0,0.,12.0,0.,12.0,0.,12.0,0.,12.0
1979-07-21 00:35:05.240 ,0,0,0.,12.0,0.,12.0,0.,12.0,0.,12.0
1979-07-21 00:35:17.240 ,0,0,0.,12.0,0.,12.0,0.,12.0,0.,12.0
1979-07-21 00:35:29.240 ,0,0,0.,12.0,0.,12.0,0.,12.0,0.,12.0
1979-07-21 00:35:41.240 ,0,0,0.,12.0,0.,12.0,0.,12.0,0.,12.0
1979-07-21 00:35:53.240 ,0,0,0.,12.0,0.,12.0,0.,12.0,0.,12.0
1979-07-21 00:36:05.240 ,1,0,0.,12.0,0.,12.0,0.,12.0,0.,12.0
1979-07-21 00:36:17.240 ,1,0,0.,12.0,0.,12.0,0.,12.0,0.,12.0
1979-07-21 00:36:29.240 ,1,0,0.,12.0,0.,12.0,0.,12.0,0.,12.0
1979-07-21 00:36:41.240 ,1,0,0.,12.0,0.,12.0,0.,12.0,0.,12.0
1979-07-21 00:36:53.240 ,2,0,0.,12.0,0.,12.0,0.,12.0,0.,12.0
1979-07-21 00:37:05.240 ,2,0,0.,12.0,0.,12.0,0.,12.0,0.,12.0
1979-07-21 00:37:17.240 ,2,0,0.,12.0,0.,12.0,0.,12.0,0.,12.0
1979-07-21 00:37:29.240 ,2,0,0.,12.0,0.,12.0,0.,12.0,0.,12.0
1979-07-21 00:37:41.240 ,3,0,0.,12.0,0.,12.0,0.,12.0,0.,12.0
1979-07-21 00:37:53.240 ,3,0,0.,12.0,0.,12.0,0.,12.0,0.,12.0
1979-07-21 00:38:05.240 ,3,0,0.,12.0,0.,12.0,0.,12.0,0.,12.0
1979-07-21 00:38:17.240 ,3,0,0.,12.0,0.,12.0,0.,12.0,0.,12.0
1979-07-21 00:38:29.240 ,4,0,0.,12.0,0.,12.0,0.,12.0,0.,12.0
1979-07-21 00:38:41.240 ,4,0,0.,12.0,0.,12.0,0.,12.0,0.,12.0
1979-07-21 00:38:53.240 ,4,0,0.,12.0,0.,12.0,0.,12.0,0.,12.0
1979-07-21 00:39:05.240 ,4,0,0.,12.0,0.,12.0,0.,12.0,0.,12.0
1979-07-21 00:39:17.240 ,5,0,0.,12.0,0.,12.0,0.,12.0,0.,12.0
1979-07-21 00:39:29.240 ,5,0,0.,12.0,0.,12.0,0.,12.0,0.,12.0
1979-07-21 00:39:41.240 ,5,0,0.,12.0,0.,12.0,0.,12.0,0.,12.0
1979-07-21 00:39:53.240 ,5,0,0.,12.0,0.,12.0,0.,12.0,0.,12.0
1979-07-21 00:40:05.240 ,6,0,0.,12.0,0.,12.0,0.,12.0,0.,12.0
1979-07-21 00:40:17.240 ,6,0,0.,12.0,0.,12.0,0.,12.0,0.,12.0
1979-07-21 00:40:29.240 ,6,0,0.,12.0,0.,12.0,0.,12.0,0.,12.0
1979-07-21 00:40:41.240 ,6,0,0.,12.0,0.,12.0,0.,12.0,0.,12.0
1979-07-21 00:40:53.240 ,7,0,0.,12.0,0.,12.0,0.,12.0,0.,12.0
1979-07-21 00:41:05.240 ,7,0,0.,12.0,0.,12.0,0.,12.0,0.,12.0
1979-07-21 00:41:17.240 ,7,0,0.,12.0,0.,12.0,0.,12.0,0.,12.0
1979-07-21 00:41:29.240 ,7,0,0.,12.0,0.,12.0,0.,12.0,0.,12.0
1979-07-21 00:41:41.240 ,7,0,0.,12.0,0.,12.0,0.,12.0,0.,12.0
1979-07-21 00:41:53.240 ,7,0,0.,12.0,0.,12.0,0.,12.0,0.,12.0
1979-07-21 00:42:05.240 ,7,0,0.,12.0,0.,12.0,0.,12.0,0.,12.0
1979-07-21 00:42:17.240 ,7,0,0.,12.0,0.,12.0,0.,12.0,0.,12.0
1979-07-21 00:42:29.240 ,6,0,0.,12.0,0.,12.0,0.,12.0,0.,12.0
1979-07-21 00:42:41.240 ,6,0,0.,12.0,0.,12.0,0.,12.0,0.,12.0
1979-07-21 00:42:53.240 ,6,0,0.,12.0,0.,12.0,0.,12.0,0.,12.0
1979-07-21 00:43:05.240 ,6,0,0.,12.0,0.,12.0,0.,12.0,0.,12.0
1979-07-21 00:43:17.240 ,5,0,0.,12.0,0.,12.0,0.,12.0,0.,12.0
1979-07-21 00:43:29.240 ,5,0,0.,12.0,0.,12.0,0.,12.0,0.,12.0
1979-07-21 00:43:41.240 ,5,0,0.,12.0,0.,12.0,0.,12.0,0.,12.0
1979-07-21 00:43:53.240 ,5,0,0.,12.0,0.,12.0,0.,12.0,0.,12.0
1979-07-21 00:44:05.240 ,4,0,0.,12.0,0.,12.0,0.,12.0,0.,12.0
1979-07-21 00:44:17.240 ,4,0,0.,12.0,0.,12.0,0.,12.0,0.,12.0
1979-07-21 00:44:29.240 ,4,0,0.,12.0,0.,12.0,0.,12.0,0.,12.0
1979-07-21 00:44:41.240 ,4,0,0.,12.0,0.,12.0,0.,12.0,0.,12.0
1979-07-21 00:44:53.240 ,3,0,0.,12.0,0.,12.0,0.,12.0,0.,12.0
1979-07-21 00:45:05.240 ,3,0,0.,12.0,0.,12.0,0.,12.0,0.,12.0
1979-07-21 00:45:17.240 ,3,0,0.,12.0,0.,12.0,0.,12.0,0.,12.0
1979-07-21 00:45:29.240 ,3,0,0.,12.0,0.,12.0,0.,12.0,0.,12.0
1979-07-21 00:45:41.240 ,2,0,0.,12.0,0.,12.0,0.,12.0,0.,12.0
1979-07-21 00:45:53.240 ,2,0,0.,12.0,0.,12.0,0.,12.0,0.,12.0
1979-07-21 00:46:05.240 ,2,0,0.,12.0,0.,12.0,0.,12.0,0.,12.0
1979-07-21 00:46:17.240 ,2,0,0.,12.0,0.,12.0,0.,12.0,0.,12.0
1979-07-21 00:46:29.240 ,1,0,0.,12.0,0.,12.0,0.,12.0,0.,12.0
1979-07-21 00:46:41.240 ,1,0,0.,12.0,0.,12.0,0.,12.0,0.,12.0
1979-07-21 00:46:53.240 ,1,0,0.,12.0,0.,12.0,0.,12.0,0.,12.0
1979-07-21 00:47:05.240 ,1,0,0.,12.0,0.,12.0,0.,12.0,0.,12.0
1979-07-21 00:47:17.240 ,0,0,0.,12.0,0.,12.0,0.,12.0,0.,12.0
1979-07-21 00:47:29.240 ,0,0,0.,12.0,0.,12.0,0.,12.0,0.,12.0
1979-07-21 00:47:41.240 ,0,0,0.,12.0,0.,12.0,0.,12.0,0.,12.0
1979-07-21 00:47:53.240 ,0,0,0.,12.0,0.,12.0,0.,12.0,0.,12.0
1979-07-21 00:48:05.240 ,0,0,0.,12.0,0.,12.0,0.,12.0,0.,12.0
1979-07-21 00:48:17.240 ,0,0,0.,12.0,0.,12.0,0.,12.0,0.,12.0
1979-07-21 00:48:29.240 ,0,0,0.,12.0,0.,12.0,0.,12.0,0.,12.0
1979-07-21 00:48:41.240 ,0,0,0.,12.0,0.,12.0,0.,12.0,0.,12.0
1979-07-21 00:48:53.240 ,1,0,0.,12.0,0.,12.0,0.,12.0,0.,12.0
1979-07-21 00:49:05.240 ,1,0,0.,12.0,0.,12.0,0.,12.0,0.,12.0
1979-07-21 00:49:17.240 ,1,0,0.,12.0,0.,12.0,0.,12.0,0.,12.0
1979-07-21 00:49:29.240 ,1,0,0.,12.0,0.,12.0,0.,12.0,0.,12.0
1979-07-21 00:49:41.240 ,2,0,0.,12.0,0.,12.0,0.,12.0,0.,12.0
1979-07-21 00:49:53.240 ,2,0,0.,12.0,0.,12.0,0.,12.0,0.,12.0
1979-07-21 00:50:05.240 ,2,0,0.,12.0,0.,12.0,0.,12.0,0.,12.0
1979-07-21 00:50:17.240 ,2,0,0.,12.0,0.,12.0,0.,12.0,0.,12.0
1979-07-21 00:50:29.240 ,3,0,0.,12.0,0.,12.0,0.,12.0,0.,12.0
1979-07-21 00:50:41.240 ,3,0,0.,12.0,0.,12.0,0.,12.0,0.,12.0
1979-07-21 00:50:53.240 ,3,0,0.,12.0,0.,12.0,0.,12.0,0.,12.0
1979-07-21 00:51:05.240 ,3,0,0.,12.0,0.,12.0,0.,12.0,0.,12.0
1979-07-21 00:51:17.240 ,4,0,0.,12.0,0.,12.0,0.,12.0,0.,12.0
1979-07-21 00:51:29.240 ,4,0,0.,12.0,0.,12.0,0.,12.0,0.,12.0
1979-07-21 00:51:41.240 ,4,0,0.,12.0,0.,12.0,0.,12.0,0.,12.0
1979-07-21 00:51:53.240 ,4,0,0.,12.0,0.,12.0,0.,12.0,0.,12.0
1979-07-21 00:52:05.240 ,5,0,0.,12.0,0.,12.0,0.,12.0,0.,12.0
1979-07-21 00:52:17.240 ,5,0,0.,12.0,0.,12.0,0.,12.0,0.,12.0
1979-07-21 00:52:29.240 ,5,0,0.,12.0,0.,12.0,0.,12.0,0.,12.0
1979-07-21 00:52:41.240 ,5,0,0.,12.0,0.,12.0,0.,12.0,0.,12.0
1979-07-21 00:52:53.240 ,6,0,0.,12.0,0.,12.0,0.,12.0,0.,12.0
1979-07-21 00:53:05.240 ,6,0,0.,12.0,0.,12.0,0.,12.0,0.,12.0
1979-07-21 00:53:17.240 ,6,0,0.,12.0,0.,12.0,0.,12.0,0.,12.0
1979-07-21 00:53:29.240 ,6,0,0.,12.0,0.,12.0,0.,12.0,0.,12.0
1979-07-21 00:53:41.240 ,7,0,0.,12.0,0.,12.0,0.,12.0,0.,12.0
1979-07-21 00:53:53.240 ,7,0,0.,12.0,0.,12.0,0.,12.0,0.,12.0
1979-07-21 00:54:05.240 ,7,0,0.,12.0,0.,12.0,0.,12.0,0.,12.0
1979-07-21 00:54:17.240 ,7,0,0.,12.0,0.,12.0,0.,12.0,0.,12.0
1979-07-21 00:54:29.240 ,7,0,0.,12.0,0.,12.0,0.,12.0,0.,12.0
1979-07-21 00:54:41.240 ,7,0,0.,12.0,0.,12.0,0.,12.0,0.,12.0
1979-07-21 00:54:53.240 ,7,0,0.,12.0,0.,12.0,0.,12.0,0.,12.0
1979-07-21 00:55:05.240 ,7,0,0.,12.0,0.,12.0,0.,12.0,0.,12.0
1979-07-21 00:55:17.240 ,6,0,0.,12.0,0.,12.0,0.,12.0,0.,12.0
1979-07-21 00:55:29.240 ,6,0,0.,12.0,0.,12.0,0.,12.0,0.,12.0
1979-07-21 00:55:41.240 ,6,0,0.,12.0,0.,12.0,0.,12.0,0.,12.0
1979-07-21 00:55:53.240 ,6,0,0.,12.0,0.,12.0,0.,12.0,0.,12.0
1979-07-21 00:56:05.240 ,5,0,0.,12.0,0.,12.0,0.,12.0,0.,12.0
1979-07-21 00:56:17.240 ,5,0,0.,12.0,0.,12.0,0.,12.0,0.,12.0
1979-07-21 00:56:29.240 ,5,0,0.,12.0,0.,12.0,0.,12.0,0.,12.0
1979-07-21 00:56:41.240 ,5,0,0.,12.0,0.,12.0,0.,12.0,0.,12.0
1979-07-21 00:56:53.240 ,4,0,0.,12.0,0.,12.0,0.,12.0,0.,12.0
1979-07-21 00:57:05.240 ,4,0,1.,12.0,0.,12.0,0.,12.0,0.,12.0
1979-07-21 00:57:17.240 ,4,0,0.,12.0,0.,12.0,0.,12.0,0.,12.0
1979-07-21 00:57:29.240 ,4,0,0.,12.0,0.,12.0,0.,12.0,0.,12.0
1979-07-21 00:57:41.240 ,3,0,0.,12.0,0.,12.0,0.,12.0,0.,12.0
1979-07-21 00:57:53.240 ,3,0,0.,12.0,0.,12.0,0.,12.0,0.,12.0
1979-07-21 00:58:05.240 ,3,0,0.,12.0,0.,12.0,0.,12.0,0.,12.0
1979-07-21 00:58:17.240 ,3,0,1.,12.0,0.,12.0,0.,12.0,0.,12.0
1979-07-21 00:58:29.240 ,2,0,0.,12.0,0.,12.0,0.,12.0,0.,12.0
1979-07-21 00:58:41.240 ,2,0,0.,12.0,0.,12.0,0.,12.0,0.,12.0
1979-07-21 00:58:53.240 ,2,0,0.,12.0,0.,12.0,0.,12.0,0.,12.0
1979-07-21 00:59:05.240 ,2,0,0.,12.0,0.,12.0,0.,12.0,0.,12.0
1979-07-21 00:59:17.240 ,1,0,0.,12.0,0.,12.0,0.,12.0,0.,12.0
1979-07-21 00:59:29.240 ,1,0,0.,12.0,0.,12.0,0.,12.0,0.,12.0
1979-07-21 00:59:41.240 ,1,0,0.,12.0,0.,12.0,0.,12.0,0.,12.0
1979-07-21 00:59:53.240 ,1,0,0.,12.0,0.,12.0,0.,12.0,0.,12.0
1979-07-21 01:00:05.240 ,0,0,0.,12.0,0.,12.0,0.,12.0,0.,12.0
1979-07-21 01:00:17.240 ,0,0,0.,12.0,0.,12.0,0.,12.0,0.,12.0
1979-07-21 01:00:29.240 ,0,0,0.,12.0,0.,12.0,0.,12.0,0.,12.0
1979-07-21 01:00:41.240 ,0,0,0.,12.0,0.,12.0,0.,12.0,0.,12.0
1979-07-21 01:00:53.240 ,0,0,0.,12.0,0.,12.0,0.,12.0,0.,12.0
1979-07-21 01:01:05.240 ,0,0,0.,12.0,0.,12.0,0.,12.0,0.,12.0
1979-07-21 01:01:17.240 ,0,0,0.,12.0,0.,12.0,0.,12.0,0.,12.0
1979-07-21 01:01:29.240 ,0,0,0.,12.0,0.,12.0,0.,12.0,0.,12.0
1979-07-21 01:01:41.240 ,1,0,0.,12.0,0.,12.0,0.,12.0,0.,12.0
1979-07-21 01:01:53.240 ,1,0,0.,12.0,0.,12.0,0.,12.0,0.,12.0
1979-07-21 01:02:05.240 ,1,0,0.,12.0,0.,12.0,0.,12.0,0.,12.0
1979-07-21 01:02:17.240 ,1,0,0.,12.0,0.,12.0,0.,12.0,0.,12.0
1979-07-21 01:02:29.240 ,2,0,0.,12.0,0.,12.0,0.,12.0,0.,12.0
1979-07-21 01:02:41.240 ,2,0,0.,12.0,0.,12.0,0.,12.0,0.,12.0
1979-07-21 01:02:53.240 ,2,0,0.,12.0,0.,12.0,0.,12.0,0.,12.0
1979-07-21 01:03:05.240 ,2,0,0.,12.0,0.,12.0,0.,12.0,0.,12.0
1979-07-21 01:03:17.240 ,3,0,0.,12.0,0.,12.0,0.,12.0,0.,12.0
1979-07-21 01:03:29.240 ,3,0,0.,12.0,0.,12.0,0.,12.0,0.,12.0
1979-07-21 01:03:41.240 ,3,0,0.,12.0,0.,12.0,0.,12.0,0.,12.0
1979-07-21 01:03:53.240 ,3,0,0.,12.0,0.,12.0,0.,12.0,0.,12.0
1979-07-21 01:04:05.240 ,4,0,0.,12.0,0.,12.0,0.,12.0,0.,12.0
1979-07-21 01:04:17.240 ,4,0,0.,12.0,0.,12.0,0.,12.0,0.,12.0
1979-07-21 01:04:29.230 ,4,0,0.,12.0,0.,12.0,0.,12.0,0.,12.0
1979-07-21 01:04:41.230 ,4,0,0.,12.0,0.,12.0,0.,12.0,0.,12.0
1979-07-21 01:04:53.230 ,5,0,0.,12.0,0.,12.0,0.,12.0,0.,12.0
1979-07-21 01:05:05.230 ,5,0,0.,12.0,0.,12.0,0.,12.0,0.,12.0
1979-07-21 01:05:17.230 ,5,0,0.,12.0,0.,12.0,0.,12.0,0.,12.0
1979-07-21 01:05:29.230 ,5,0,0.,12.0,0.,12.0,0.,12.0,0.,12.0
1979-07-21 01:05:41.230 ,6,0,0.,12.0,0.,12.0,0.,12.0,0.,12.0
1979-07-21 01:05:53.230 ,6,0,0.,12.0,0.,12.0,0.,12.0,0.,12.0
1979-07-21 01:06:05.230 ,6,0,0.,12.0,0.,12.0,0.,12.0,0.,12.0
1979-07-21 01:06:17.230 ,6,0,0.,12.0,0.,12.0,0.,12.0,0.,12.0
1979-07-21 01:06:29.230 ,7,0,0.,12.0,0.,12.0,0.,12.0,0.,12.0
1979-07-21 01:06:41.230 ,7,0,0.,12.0,0.,12.0,0.,12.0,0.,12.0
1979-07-21 01:06:53.230 ,7,0,0.,12.0,0.,12.0,0.,12.0,0.,12.0
1979-07-21 01:07:05.230 ,7,0,0.,12.0,0.,12.0,0.,12.0,0.,12.0
1979-07-21 01:07:17.230 ,3,1,0.,12.0,0.,12.0,0.,12.0,0.,12.0
1979-07-21 01:07:29.230 ,3,1,1.,12.0,0.,12.0,0.,12.0,0.,12.0
1979-07-21 01:07:41.230 ,0,1,0.,12.0,0.,12.0,0.,12.0,0.,12.0
1979-07-21 01:07:53.230 ,0,1,0.,12.0,0.,12.0,0.,12.0,0.,12.0
1979-07-21 01:08:05.230 ,4,1,0.,12.0,0.,12.0,0.,12.0,0.,12.0
1979-07-21 01:08:17.230 ,4,1,0.,12.0,0.,12.0,0.,12.0,0.,12.0
1979-07-21 01:08:29.230 ,7,1,0.,12.0,0.,12.0,0.,12.0,0.,12.0
1979-07-21 01:08:41.230 ,7,1,0.,12.0,0.,12.0,0.,12.0,0.,12.0
1979-07-21 01:08:53.230 ,3,1,0.,12.0,0.,12.0,0.,12.0,0.,12.0
1979-07-21 01:09:05.230 ,3,1,0.,12.0,0.,12.0,0.,12.0,0.,12.0
1979-07-21 01:09:17.230 ,0,1,0.,12.0,0.,12.0,0.,12.0,0.,12.0
1979-07-21 01:09:29.230 ,0,1,0.,12.0,0.,12.0,0.,12.0,0.,12.0
1979-07-21 01:09:41.230 ,4,1,1.,12.0,0.,12.0,0.,12.0,0.,12.0
1979-07-21 01:09:53.230 ,4,1,0.,12.0,0.,12.0,0.,12.0,0.,12.0
1979-07-21 01:10:05.230 ,7,1,0.,12.0,0.,12.0,0.,12.0,0.,12.0
1979-07-21 01:10:17.230 ,7,1,0.,12.0,0.,12.0,0.,12.0,0.,12.0
1979-07-21 01:10:29.230 ,3,1,0.,12.0,0.,12.0,0.,12.0,0.,12.0
1979-07-21 01:10:41.230 ,3,1,0.,12.0,0.,12.0,0.,12.0,0.,12.0
1979-07-21 01:10:53.230 ,0,1,0.,12.0,0.,12.0,0.,12.0,0.,12.0
1979-07-21 01:11:05.230 ,0,1,0.,12.0,0.,12.0,0.,12.0,0.,12.0
1979-07-21 01:11:17.230 ,4,1,0.,12.0,0.,12.0,0.,12.0,0.,12.0
1979-07-21 01:11:29.230 ,4,1,0.,12.0,0.,12.0,0.,12.0,0.,12.0
1979-07-21 01:11:41.230 ,7,1,0.,12.0,0.,12.0,0.,12.0,0.,12.0
1979-07-21 01:11:53.230 ,7,1,0.,12.0,0.,12.0,0.,12.0,0.,12.0
1979-07-21 01:12:05.230 ,3,1,0.,12.0,0.,12.0,0.,12.0,0.,12.0
1979-07-21 01:12:17.230 ,3,1,0.,12.0,0.,12.0,0.,12.0,0.,12.0
1979-07-21 01:12:29.230 ,0,1,0.,12.0,0.,12.0,1.,12.0,0.,12.0
1979-07-21 01:12:41.230 ,0,1,0.,12.0,0.,12.0,0.,12.0,0.,12.0
1979-07-21 01:12:53.230 ,4,1,0.,12.0,0.,12.0,0.,12.0,0.,12.0
1979-07-21 01:13:05.230 ,4,1,0.,12.0,0.,12.0,0.,12.0,0.,12.0
1979-07-21 01:13:17.230 ,7,1,0.,12.0,0.,12.0,0.,12.0,0.,12.0
1979-07-21 01:13:29.230 ,7,1,0.,12.0,0.,12.0,0.,12.0,0.,12.0
1979-07-21 01:13:41.230 ,3,1,0.,12.0,0.,12.0,0.,12.0,0.,12.0
1979-07-21 01:13:53.230 ,3,1,0.,12.0,0.,12.0,0.,12.0,0.,12.0
1979-07-21 01:14:05.230 ,0,1,0.,12.0,0.,12.0,0.,12.0,0.,12.0
1979-07-21 01:14:17.230 ,0,1,0.,12.0,0.,12.0,0.,12.0,0.,12.0
1979-07-21 01:14:29.230 ,4,1,0.,12.0,0.,12.0,0.,12.0,0.,12.0
1979-07-21 01:14:41.230 ,4,1,0.,12.0,0.,12.0,0.,12.0,0.,12.0
1979-07-21 01:14:53.230 ,7,1,0.,12.0,0.,12.0,0.,12.0,0.,12.0
1979-07-21 01:15:05.230 ,7,1,0.,12.0,0.,12.0,0.,12.0,0.,12.0
1979-07-21 01:15:17.230 ,3,1,0.,12.0,0.,12.0,0.,12.0,0.,12.0
1979-07-21 01:15:29.230 ,3,1,0.,12.0,0.,12.0,0.,12.0,0.,12.0
1979-07-21 01:15:41.230 ,0,1,0.,12.0,0.,12.0,0.,12.0,0.,12.0
1979-07-21 01:15:53.230 ,0,1,0.,12.0,0.,12.0,0.,12.0,0.,12.0
1979-07-21 01:16:05.230 ,4,1,0.,12.0,0.,12.0,0.,12.0,0.,12.0
1979-07-21 01:16:17.230 ,4,1,0.,12.0,0.,12.0,0.,12.0,0.,12.0
1979-07-21 01:16:29.230 ,7,1,0.,12.0,0.,12.0,0.,12.0,0.,12.0
1979-07-21 01:16:41.230 ,7,1,0.,12.0,0.,12.0,1.,12.0,0.,12.0
1979-07-21 01:16:53.230 ,3,1,0.,12.0,0.,12.0,0.,12.0,0.,12.0
1979-07-21 01:17:05.230 ,3,1,0.,12.0,0.,12.0,0.,12.0,0.,12.0
1979-07-21 01:17:17.230 ,0,1,0.,12.0,0.,12.0,0.,12.0,0.,12.0
1979-07-21 01:17:29.230 ,0,1,0.,12.0,0.,12.0,0.,12.0,0.,12.0